カタログに戻る

ONEWEB-0645

運用中通信PO
NORAD 55809·PAYLOAD·🇬🇧 United Kingdom

打ち上げ Mar 9, 2023 から Cape Canaveral Space Force Station

Loading…

次のパス (今後24時間)

TLE

最新Source: CelesTrak SupGP

元期: Sep 14, 2026, 18:07 UTC

1 55809C 23029P   26257.75502732 -.00002915  00000+0 -72907-2 0  2578
2 55809  87.9105 287.1306 0002189  83.4197  30.3970 13.19727271    11

AllMySatでONEWEB-0645をリアルタイム追跡

Download on the App Store